Total_Precipitation_Accumulation
2.50 2.55 2.38 2.37 2.46 2.49 2.66 2.91 2.97 2.79 2.68 2.46 1.99 1.71 1.77 1.97 2.18 1.95 1.88 1.74 1.58 1.48 1.39 1.37 1.39 1.46 1.54 1.67 1.87 2.06 2.16 2.23 2.30 2.29 2.34 2.48 2.54 2.64
2.33 2.39 2.34 2.30 2.42 2.38 2.45 2.65 2.84 2.90 2.70 2.41 2.15 1.81 1.83 1.76 1.98 1.96 1.96 1.88 1.64 1.47 1.31 1.21 1.22 1.30 1.40 1.47 1.54 1.67 1.72 1.74 1.79 1.86 1.90 1.92 1.95 2.03
2.02 2.08 2.11 2.22 2.36 2.35 2.41 2.44 2.67 2.95 2.84 2.64 2.43 2.23 2.09 1.98 1.83 1.82 1.78 1.71 1.53 1.39 1.19 1.10 1.11 1.15 1.20 1.28 1.37 1.48 1.56 1.61 1.63 1.66 1.71 1.77 1.81 1.84
1.97 2.11 2.02 2.17 2.32 2.26 2.36 2.37 2.53 2.84 2.94 3.06 3.03 2.71 2.40 2.23 2.13 1.97 1.63 1.50 1.54 1.47 1.30 1.15 1.09 1.08 1.07 1.09 1.18 1.31 1.43 1.50 1.53 1.55 1.57 1.61 1.70 1.78
2.05 2.09 1.97 2.07 2.13 2.12 2.19 2.26 2.42 2.62 2.85 2.86 2.90 2.77 2.58 2.30 2.39 2.13 1.83 1.78 1.45 1.40 1.34 1.17 1.09 1.06 1.04 1.07 1.12 1.16 1.24 1.34 1.38 1.48 1.57 1.59 1.63 1.67
2.02 1.92 1.79 1.78 1.86 2.00 2.00 2.14 2.34 2.53 2.69 2.65 2.70 2.76 2.77 2.73 2.75 2.55 2.37 2.12 1.76 1.38 1.39 1.24 1.19 1.10 0.99 0.95 0.98 1.05 1.16 1.28 1.33 1.39 1.48 1.55 1.61 1.66
1.86 1.69 1.49 1.50 1.59 1.65 1.62 1.95 2.22 2.34 2.42 2.48 2.56 2.73 2.84 3.03 2.84 2.72 2.62 2.53 2.23 1.87 1.81 1.47 1.34 1.16 1.01 0.97 0.96 0.96 1.02 1.17 1.27 1.35 1.43 1.49 1.58 1.67
1.76 1.72 1.53 1.38 1.31 1.33 1.32 1.48 1.79 1.94 2.11 2.37 2.51 2.70 2.78 2.82 2.99 2.96 2.89 2.73 2.49 2.19 2.17 2.10 1.92 1.74 1.44 1.14 1.10 0.99 0.92 1.02 1.19 1.29 1.40 1.49 1.55 1.62
1.66 1.67 1.42 1.28 1.33 1.21 1.26 1.32 1.37 1.46 1.61 1.97 2.25 2.35 2.40 2.45 2.73 2.86 2.87 2.75 2.67 2.51 2.54 2.53 2.36 2.08 1.64 1.41 1.35 1.14 1.05 1.01 1.07 1.17 1.23 1.33 1.45 1.54
1.39 1.39 1.40 1.39 1.31 1.33 1.31 1.32 1.24 1.25 1.32 1.37 1.52 1.71 1.96 2.18 2.39 2.63 2.91 2.87 2.82 2.75 2.72 2.78 2.58 2.42 2.04 1.71 1.53 1.28 1.18 1.15 1.16 1.18 1.20 1.22 1.29 1.40
1.40 1.40 1.47 1.53 1.51 1.34 1.29 1.34 1.35 1.38 1.34 1.36 1.30 1.36 1.49 1.61 1.80 2.09 2.43 2.77 2.98 2.96 2.75 2.81 2.72 2.74 2.67 2.25 1.80 1.53 1.26 1.16 1.15 1.15 1.17 1.17 1.19 1.28
1.68 1.68 1.57 1.44 1.41 1.27 1.28 1.39 1.36 1.37 1.30 1.27 1.23 1.20 1.20 1.33 1.48 1.67 1.95 2.32 2.61 2.75 2.66 2.77 2.91 3.23 3.38 2.88 2.25 1.80 1.55 1.43 1.29 1.17 1.15 1.16 1.19 1.10
1.64 1.59 1.45 1.28 1.15 1.11 1.10 1.20 1.29 1.22 1.21 1.27 1.32 1.32 1.32 1.37 1.41 1.50 1.77 1.99 2.13 2.08 2.05 2.42 2.66 2.92 3.26 3.18 2.93 2.53 2.19 1.90 1.64 1.45 1.38 1.37 1.37 1.27
1.70 1.63 1.46 1.28 1.13 1.07 0.95 1.00 1.06 1.00 1.06 1.22 1.30 1.33 1.33 1.33 1.40 1.52 1.70 1.90 2.08 2.05 2.01 2.21 2.43 2.63 2.73 2.71 2.73 2.76 2.69 2.48 2.17 1.88 1.66 1.70 1.64 1.64
1.50 1.64 1.51 1.24 1.05 0.98 0.96 0.89 0.80 0.82 0.96 1.07 1.13 1.20 1.22 1.28 1.38 1.56 1.79 1.94 2.00 1.96 1.88 2.02 2.23 2.45 2.57 2.49 2.39 2.36 2.40 2.37 2.28 2.21 2.12 1.96 1.80 1.72
1.33 1.34 1.30 1.16 1.00 1.00 1.02 0.91 0.81 0.88 0.94 0.95 1.01 1.10 1.15 1.23 1.37 1.47 1.64 1.84 1.97 1.88 1.85 1.93 2.10 2.31 2.33 2.29 2.22 2.12 2.14 2.22 2.27 2.34 2.36 2.25 2.09 1.97
1.28 1.31 1.27 1.28 1.18 1.13 1.16 1.12 1.07 1.10 1.07 1.01 1.03 1.07 1.12 1.18 1.25 1.37 1.51 1.61 1.72 1.72 1.71 1.77 1.88 2.04 2.04 2.03 2.02 1.90 1.87 1.85 1.99 2.24 2.43 2.40 2.18 2.03
1.17 1.29 1.42 1.43 1.39 1.37 1.36 1.33 1.31 1.26 1.25 1.27 1.24 1.19 1.19 1.21 1.20 1.26 1.38 1.45 1.45 1.48 1.56 1.57 1.67 1.84 1.92 1.84 1.62 1.57 1.58 1.60 1.64 1.85 2.09 2.25 2.12 1.97
1.16 1.29 1.45 1.49 1.51 1.52 1.45 1.41 1.44 1.38 1.37 1.37 1.33 1.31 1.33 1.34 1.31 1.30 1.38 1.45 1.42 1.39 1.41 1.54 1.59 1.68 1.70 1.62 1.42 1.22 1.39 1.53 1.57 1.58 1.63 1.76 1.82 1.71
1.24 1.41 1.59 1.59 1.60 1.59 1.51 1.44 1.45 1.41 1.37 1.35 1.34 1.33 1.35 1.40 1.41 1.38 1.38 1.44 1.44 1.39 1.40 1.42 1.48 1.48 1.50 1.51 1.43 1.27 1.11 1.31 1.45 1.46 1.42 1.45 1.43 1.47
1.41 1.51 1.53 1.54 1.56 1.52 1.45 1.40 1.43 1.40 1.38 1.39 1.37 1.37 1.38 1.45 1.45 1.41 1.37 1.41 1.36 1.30 1.28 1.31 1.33 1.37 1.44 1.57 1.51 1.31 1.16 1.11 1.23 1.30 1.35 1.46 1.44 1.38
1.37 1.37 1.36 1.36 1.39 1.40 1.40 1.43 1.49 1.47 1.46 1.45 1.39 1.37 1.37 1.40 1.40 1.39 1.37 1.36 1.34 1.29 1.25 1.26 1.29 1.35 1.45 1.53 1.49 1.38 1.30 1.27 1.27 1.30 1.30 1.33 1.33 1.28
1.29 1.30 1.29 1.26 1.23 1.28 1.32 1.35 1.39 1.41 1.37 1.33 1.31 1.31 1.28 1.32 1.30 1.27 1.28 1.24 1.24 1.26 1.30 1.30 1.32 1.36 1.39 1.46 1.53 1.51 1.39 1.37 1.40 1.36 1.19 1.09 1.02 0.95